1999 VG22 

Epoch 1999 Nov. 18.0 TT = JDT 2451500.5                 Nakano

M 310.48779              (2000.0)            P               Q

n   0.46615743     Peri.  222.63445     -0.69569956     -0.71659778

a   1.6473314      Node   271.51589     +0.67177532     -0.62443686

e   0.3295623      Incl.    2.86110     +0.25440133     -0.31075107

P   2.11           H   18.8           G   0.15           U   *

Residuals in seconds of arc 

991111 703  0.5-  0.3-    991112 595  0.1+  0.3-    991113 595  0.3-  0.1-  

991111 703  0.4-  1.0-    991112 595  0.3-  0.3-    991113 595  0.5+  0.1+  

991111 703  0.3-  0.4+    991112 595  0.9+  0.2+    991113 595  0.5-  0.2-  

991111 703 (2.6-  1.5+)   991112 595  0.4+  0.1+    991113 595  0.5+  0.0   

991111 118  0.2-  0.6+    991113 474  0.1-  0.0     991114 853  0.3+  0.3-  

991111 118  0.2-  0.3+    991113 474  0.8-  0.1-    991114 853  0.0   0.5-  

991111 118  0.1-  1.0+    991113 474  0.5-  0.1-    991114 853  0.1+  0.1-  

991112 853  0.4+  0.4+    991113 474  0.5-  0.1+    991114 706  0.1-  0.7+  

991112 853  0.4+  0.3+    991113 474  0.7-  0.1-    991114 706 (2.4+  0.1-) 

991112 853  0.5+  0.4+    991113 402  0.1+  0.1-    991118 402  0.1-  0.3+  

991112 651  0.1+  0.4-    991113 402  0.0   0.3+    991118 402  0.6+  0.1-  

991112 651  0.2+  0.4-    991113 402  0.4+  0.3-    991118 402  0.6-  0.1+  

991112 651  0.4+  0.1-    991113 402  0.1+  0.7-                            

 

NAKANO

         **** Don't distribute anyone except personal use only ****

                (C) Copyright 1999 OAA/ComputingSection

write mail from CFAD0::NAKANO on 1999-11-20 00:57:37(JST).



1999 VG22 

Epoch 1999 Nov. 18.0 TT = JDT 2451500.5                 Nakano

M 311.37331              (2000.0)            P               Q

n   0.46395838     Peri.  222.33488     -0.68870236     -0.72333112

a   1.6525326      Node   271.25871     +0.67784931     -0.61797051

e   0.3334222      Incl.    2.85584     +0.25731180     -0.30806581

P   2.12           H   18.9           G   0.15           U   *

 

NAKANO

         **** Don't distribute anyone except personal use only ****

                (C) Copyright 1999 OAA/ComputingSection

write mail from CFAD0::NAKANO on 1999-11-15 22:55:15(JST).



–ß‚è‚Ü‚·B